This is the latest recevied weather packets stored in our database for station/object KD4VIF. If no packets are shown the sender has not sent any weather packets the latest 10 day(s).
| Time | Temp. | Humidity | Pressure | Rain* | Wind** | Luminosity | Snow |
|---|---|---|---|---|---|---|---|
| 1777563321 | 16.11° C | 100% | 1009.4 hPa | 0.51 mm | 0 m/s | - | - |
| 1777563021 | 15.56° C | 100% | 1009.5 hPa | 0.51 mm | 0 m/s | - | - |
| 1777562721 | 15.56° C | 100% | 1009.3 hPa | 0.51 mm | 0 m/s | - | - |
| 1777562121 | 15° C | 100% | 1009.2 hPa | 1.02 mm | 0 m/s | - | - |
| 1777561821 | 15° C | 100% | 1009.1 hPa | 1.02 mm | 0 m/s | - | - |
| 1777561521 | 15° C | 100% | 1008.9 hPa | 1.02 mm | 0 m/s | - | - |
| 1777560921 | 15° C | 100% | 1009.2 hPa | 1.52 mm | 0 m/s | - | - |
| 1777560620 | 15° C | 100% | 1009.2 hPa | 1.52 mm | 0 m/s | - | - |
| 1777560321 | 15° C | 100% | 1009.2 hPa | 1.52 mm | 0 m/s | - | - |
| 1777559963 | 15° C | 100% | 1009.1 hPa | 1.02 mm | 0 m/s | - | - |
| 1777559661 | 15° C | 100% | 1009.3 hPa | 1.02 mm | 0 m/s | - | - |
| 1777559362 | 15° C | 100% | 1009.3 hPa | 1.02 mm | 0 m/s | - | - |
| 1777559061 | 15° C | 100% | 1009.3 hPa | 0 mm | 0 m/s | - | - |
| 1777558941 | 15° C | 100% | 1009.5 hPa | 0 mm | 0 m/s | - | - |
| 1777558641 | 15° C | 100% | 1009.6 hPa | 0 mm | 0 m/s | - | - |
| 1777557740 | 15° C | 100% | 1009.6 hPa | 0 mm | 0 m/s | - | - |
| 1777557682 | 15° C | 100% | 1009.7 hPa | 0 mm | 0 m/s | - | - |
| 1777557381 | 15° C | 100% | 1009.4 hPa | 2.54 mm | 0 m/s | - | - |
| 1777557080 | 15° C | 100% | 1009.6 hPa | 3.05 mm | 0 m/s | - | - |
| 1777556781 | 15° C | 100% | 1010 hPa | 3.56 mm | 0 m/s | - | - |
| 1777556481 | 15° C | 100% | 1010.1 hPa | 2.54 mm | 0 m/s | - | - |
| 1777555881 | 15.56° C | 100% | 1010.5 hPa | 3.56 mm | 0 m/s | - | - |
| 1777555581 | 15.56° C | 100% | 1010.8 hPa | 4.06 mm | 0 m/s | - | - |
| 1777555281 | 15.56° C | 100% | 1010.9 hPa | 5.59 mm | 0 m/s | - | - |
| 1777554980 | 15.56° C | 100% | 1011 hPa | 5.59 mm | 0 m/s | - | - |
* Rain latest hour (hover to see other rain measurements)
** Current wind speed in m/s (hover to see current wind gust speed)